Location: Memphis
(29.8667°N, 31.2500°E)
Time: 11:58:10
(UTC+00:00)

Cosmos 2184 Rocket - Pass Details

Date: 03 March 2021
Orbit: 960 x 1001 km, 82.9° (Epoch: 15 April)

Event Time Altitude Azimuth Distance (km) Brightness Sun altitude
Rises 16:04:11 0° 180° (S) 3,626 7.1 -2.7°
Reaches altitude 10° 16:06:41 10° 178° (S) 2,683 6.4 -3.2°
Maximum altitude 16:12:48 77° 94° (E) 988 4.0 -4.5°
Drops below altitude 10° 16:18:58 10° 9° (N) 2,706 6.2 -5.9°
Sets 16:21:29 0° 8° (N) 3,660 6.9 -6.4°
